When you browse on this site, cookies collect data to enhance your experience and personalize the content and advertising you see.
Visit our Privacy Policy to learn more. By continuing to use the site, you agree to this use of cookies and data.
  • In Spain
  • List of Countries
  • For 7 days
  • Water Temperature
  • Weather Map
  • Weather Widgets
  • user-avatar
    Login

    Hourly Weather Ipswich

    Today, 6 December, Friday

    Time Temperature Precipitation Wind Pressure Humidity
    00:00 +7°C° 0 mm 10 mps 756 mmHg 83%
    01:00 +7°C° 0 mm 10 mps 755 mmHg 85%
    02:00 +8°C° 0 mm 10 mps 755 mmHg 86%
    03:00 +8°C° 0 mm 9 mps 754 mmHg 87%
    04:00 +8°C° 0 mm 9 mps 754 mmHg 88%
    05:00 +8°C° 0 mm 9 mps 754 mmHg 88%
    06:00 +9°C° 0 mm 8 mps 754 mmHg 88%
    07:00 +10°C° 1.1 mm 9 mps 753 mmHg 88%
    08:00 +10°C° 1.1 mm 9 mps 752 mmHg 89%
    09:00 +9°C° 1.1 mm 10 mps 751 mmHg 90%
    10:00 +11°C° 0 mm 10 mps 751 mmHg 88%
    11:00 +11°C° 0 mm 10 mps 751 mmHg 86%
    12:00 +11°C° 0 mm 9 mps 750 mmHg 85%
    13:00 +11°C° 0.1 mm 9 mps 750 mmHg 83%
    14:00 +11°C° 0.1 mm 9 mps 749 mmHg 80%
    15:00 +11°C° 0.1 mm 9 mps 748 mmHg 78%
    16:00 +10°C° 0.1 mm 9 mps 749 mmHg 79%
    17:00 +8°C° 0.1 mm 9 mps 749 mmHg 80%
    18:00 +8°C° 0.1 mm 9 mps 749 mmHg 81%
    19:00 +7°C° 0 mm 9 mps 750 mmHg 81%
    20:00 +7°C° 0 mm 9 mps 751 mmHg 81%
    21:00 +7°C° 0 mm 8 mps 752 mmHg 81%
    22:00 +7°C° 0 mm 8 mps 753 mmHg 83%
    23:00 +6°C° 0 mm 7 mps 754 mmHg 85%

    Tomorrow, 7 December, Saturday

    Time Temperature Precipitation Wind Pressure Humidity
    00:00 +6°C° 0 mm 7 mps 754 mmHg 87%
    01:00 +6°C° 0 mm 7 mps 755 mmHg 88%
    02:00 +5°C° 0 mm 7 mps 755 mmHg 89%
    03:00 +5°C° 0 mm 7 mps 755 mmHg 90%
    04:00 +5°C° 0 mm 7 mps 756 mmHg 90%
    05:00 +5°C° 0 mm 6 mps 756 mmHg 90%
    06:00 +5°C° 0 mm 6 mps 757 mmHg 90%
    07:00 +5°C° 0 mm 6 mps 757 mmHg 90%
    08:00 +5°C° 0 mm 6 mps 757 mmHg 90%
    09:00 +5°C° 0 mm 6 mps 758 mmHg 90%
    10:00 +5°C° 0 mm 6 mps 758 mmHg 87%
    11:00 +7°C° 0 mm 6 mps 758 mmHg 85%
    12:00 +8°C° 0 mm 6 mps 758 mmHg 82%
    13:00 +8°C° 0 mm 5 mps 758 mmHg 83%
    14:00 +7°C° 0 mm 5 mps 758 mmHg 84%
    15:00 +7°C° 0 mm 5 mps 758 mmHg 85%
    16:00 +7°C° 0 mm 5 mps 758 mmHg 86%
    17:00 +5°C° 0 mm 6 mps 758 mmHg 88%
    18:00 +5°C° 0 mm 6 mps 757 mmHg 90%
    19:00 +5°C° 0 mm 7 mps 757 mmHg 90%
    20:00 +5°C° 0 mm 7 mps 756 mmHg 89%
    21:00 +5°C° 0 mm 7 mps 756 mmHg 89%
    22:00 +6°C° 0 mm 8 mps 755 mmHg 89%
    23:00 +6°C° 0 mm 9 mps 754 mmHg 90%

    Day after tomorrow, 8 December, Sunday

    Time Temperature Precipitation Wind Pressure Humidity
    00:00 +7°C° 0 mm 10 mps 753 mmHg 91%
    01:00 +7°C° 0.3 mm 10 mps 752 mmHg 89%
    02:00 +7°C° 0.3 mm 11 mps 750 mmHg 88%
    03:00 +8°C° 0.3 mm 11 mps 749 mmHg 87%
    04:00 +9°C° 0.3 mm 11 mps 748 mmHg 88%
    05:00 +9°C° 0.3 mm 11 mps 748 mmHg 89%
    06:00 +11°C° 0.3 mm 11 mps 747 mmHg 90%
    07:00 +9°C° 0.1 mm 10 mps 747 mmHg 86%
    08:00 +8°C° 0.1 mm 9 mps 747 mmHg 81%
    09:00 +7°C° 0.1 mm 8 mps 748 mmHg 77%
    10:00 +7°C° 0 mm 9 mps 748 mmHg 74%
    11:00 +7°C° 0 mm 9 mps 748 mmHg 72%
    12:00 +7°C° 0 mm 9 mps 748 mmHg 70%
    13:00 +7°C° 0.2 mm 9 mps 748 mmHg 71%
    14:00 +6°C° 0.2 mm 9 mps 747 mmHg 73%
    15:00 +6°C° 0.2 mm 9 mps 746 mmHg 74%
    16:00 +5°C° 0 mm 10 mps 746 mmHg 74%
    17:00 +5°C° 0 mm 10 mps 746 mmHg 74%
    18:00 +3°C° 0 mm 10 mps 746 mmHg 75%
    19:00 +3°C° 0 mm 10 mps 745 mmHg 75%
    20:00 +3°C° 0 mm 11 mps 744 mmHg 76%
    21:00 +3°C° 0 mm 11 mps 744 mmHg 77%
    22:00 +3°C° 0 mm 12 mps 742 mmHg 78%
    23:00 +3°C° 0 mm 12 mps 741 mmHg 79%

    9 December, Monday

    Time Temperature Precipitation Wind Pressure Humidity
    00:00 +3°C° 0 mm 13 mps 740 mmHg 80%
    01:00 +4°C° 0.1 mm 12 mps 740 mmHg 79%
    02:00 +4°C° 0.1 mm 12 mps 740 mmHg 77%
    03:00 +4°C° 0.1 mm 11 mps 739 mmHg 76%
    04:00 +3°C° 0.2 mm 10 mps 739 mmHg 80%
    05:00 +3°C° 0.2 mm 10 mps 739 mmHg 85%
    06:00 +2°C° 0.2 mm 9 mps 739 mmHg 89%
    07:00 +4°C° 0.2 mm 8 mps 741 mmHg 89%
    08:00 +4°C° 0.2 mm 7 mps 742 mmHg 89%
    09:00 +5°C° 0.2 mm 6 mps 743 mmHg 89%
    10:00 +5°C° 0 mm 8 mps 745 mmHg 85%
    11:00 +5°C° 0 mm 10 mps 747 mmHg 81%
    12:00 +4°C° 0 mm 12 mps 749 mmHg 77%
    13:00 +4°C° 0.1 mm 11 mps 750 mmHg 74%
    14:00 +4°C° 0.1 mm 11 mps 752 mmHg 71%
    15:00 +3°C° 0.1 mm 11 mps 753 mmHg 68%
    16:00 +3°C° 0 mm 11 mps 755 mmHg 69%
    17:00 +2°C° 0 mm 10 mps 756 mmHg 70%
    18:00 +1°C° 0 mm 10 mps 758 mmHg 71%
    19:00 +1°C° 0 mm 9 mps 759 mmHg 72%
    20:00 +1°C° 0 mm 9 mps 761 mmHg 73%
    21:00 0°C° 0 mm 9 mps 762 mmHg 73%
    22:00 0°C° 0 mm 8 mps 763 mmHg 74%
    23:00 0°C° 0 mm 7 mps 764 mmHg 75%

    10 December, Tuesday

    Time Temperature Precipitation Wind Pressure Humidity
    00:00 -1°C° 0 mm 7 mps 764 mmHg 77%
    01:00 -1°C° 0 mm 6 mps 765 mmHg 78%
    02:00 -2°C° 0 mm 6 mps 765 mmHg 79%
    03:00 -1°C° 0 mm 5 mps 766 mmHg 81%
    04:00 -1°C° 0 mm 4 mps 766 mmHg 80%
    05:00 0°C° 0 mm 3 mps 766 mmHg 80%
    06:00 -1°C° 0 mm 2 mps 766 mmHg 80%
    07:00 0°C° 0 mm 3 mps 766 mmHg 78%
    08:00 0°C° 0 mm 3 mps 766 mmHg 77%
    09:00 -1°C° 0 mm 4 mps 766 mmHg 75%
    10:00 +1°C° 0 mm 5 mps 765 mmHg 72%
    11:00 +2°C° 0 mm 6 mps 764 mmHg 68%
    12:00 +3°C° 0 mm 7 mps 764 mmHg 65%
    13:00 +2°C° 0 mm 8 mps 763 mmHg 69%
    14:00 +3°C° 0 mm 9 mps 761 mmHg 74%
    15:00 +3°C° 0 mm 9 mps 760 mmHg 79%
    16:00 +3°C° 0.2 mm 10 mps 759 mmHg 81%
    17:00 +4°C° 0.2 mm 11 mps 759 mmHg 83%
    18:00 +4°C° 0.2 mm 12 mps 758 mmHg 85%
    19:00 +4°C° 0.2 mm 12 mps 757 mmHg 85%
    20:00 +5°C° 0.2 mm 13 mps 755 mmHg 86%
    21:00 +5°C° 0.2 mm 14 mps 754 mmHg 86%
    22:00 +6°C° 0.3 mm 14 mps 753 mmHg 87%
    23:00 +6°C° 0.3 mm 14 mps 752 mmHg 87%

    11 December, Wednesday

    Time Temperature Precipitation Wind Pressure Humidity
    00:00 +6°C° 0.3 mm 14 mps 751 mmHg 88%
    01:00 +7°C° 1.1 mm 12 mps 752 mmHg 88%
    02:00 +6°C° 1.1 mm 9 mps 752 mmHg 87%
    03:00 +6°C° 1.1 mm 7 mps 752 mmHg 87%
    04:00 +5°C° 0 mm 7 mps 753 mmHg 86%
    05:00 +4°C° 0 mm 6 mps 753 mmHg 85%
    06:00 +3°C° 0 mm 6 mps 754 mmHg 85%
    07:00 +2°C° 0 mm 6 mps 754 mmHg 84%
    08:00 +2°C° 0 mm 5 mps 755 mmHg 84%
    09:00 +2°C° 0 mm 5 mps 756 mmHg 83%
    10:00 +3°C° 0 mm 5 mps 756 mmHg 80%
    11:00 +4°C° 0 mm 6 mps 756 mmHg 76%
    12:00 +5°C° 0 mm 6 mps 756 mmHg 73%
    13:00 +5°C° 0 mm 5 mps 755 mmHg 75%
    14:00 +5°C° 0 mm 5 mps 755 mmHg 78%
    15:00 +5°C° 0 mm 5 mps 755 mmHg 80%
    16:00 +3°C° 0 mm 5 mps 754 mmHg 82%
    17:00 +3°C° 0 mm 5 mps 754 mmHg 84%
    18:00 +3°C° 0 mm 4 mps 754 mmHg 86%
    19:00 +2°C° 1.5 mm 5 mps 753 mmHg 89%
    20:00 +2°C° 1.5 mm 5 mps 753 mmHg 93%
    21:00 +1°C° 1.5 mm 6 mps 753 mmHg 96%
    22:00 +1°C° 0.4 mm 6 mps 753 mmHg 93%
    23:00 +1°C° 0.4 mm 6 mps 753 mmHg 91%
    Show more